King Cove AP, King Cove, AK, AK

10:49 AM AKDT on April 26, 2017 (GMT -0800)
King Cove AP, King Cove, AK

Weather History for PAVC - March, 2014

Change the Weather History Date:

Wednesday, March 5, 2014

  Actual Average (PACD) Record (PACD)
Temperature  
Mean Temperature 38 °F -  
Max Temperature 42 °F 35 °F 45 °F (1955)
Min Temperature 33 °F 25 °F -2 °F (1972)
Degree Days  
Heating Degree Days 28    
Moisture  
Dew Point 32 °F    
Average Humidity 86    
Maximum Humidity 100    
Minimum Humidity 57    
Precipitation  
Precipitation 0.00 in - - ()
Sea Level Pressure  
Sea Level Pressure 29.63 in    
Wind  
Wind Speed 3 mph (East)    
Max Wind Speed 12 mph    
Max Gust Speed -    
Visibility 8 miles    
Events Rain , Snow    
Averages and records for this station are not official NWS values.
T = Trace of Precipitation, MM = Missing Value Source: NWS Daily Summary

Daily Weather History Graph

Daily Weather History Graph

Search for Another Location

Airport or City:

Trip Planner

Search our weather history database for the weather conditions in past years. The results will help you decide how hot, cold, wet, or windy it might be!

Date:

Astronomy

Mar. 05, 2014 Rise Set
Actual Time 8:28 AM AKST 7:33 PM AKST
Civil Twilight 7:52 AM AKST 8:09 PM AKST
Nautical Twilight 7:10 AM AKST 8:51 PM AKST
Astronomical Twilight 6:27 AM AKST 9:34 PM AKST
Moon 10:11 AM AKST (3/5) 12:39 AM AKST (3/5)
Length of Visible Light 12h 17m
Length of Day
11h 04m
Waxing Crescent, 24% of the Moon is Illuminated
Mar 5
Waxing Crescent
Mar 8
First Quarter
Mar 16
Full
Mar 23
Last Quarter
Mar 30
New

Hourly Weather History & Observations

Time (AKST) Temp. Windchill Dew Point Humidity Pressure Visibility Wind Dir Wind Speed Gust Speed Precip Events Conditions
12:10 AM 33.8 °F - 32.0 °F 93% 29.75 in 4.0 mi Calm Calm - N/A   Overcast
12:56 AM 34.0 °F - 32.9 °F 96% 29.75 in 2.0 mi Calm Calm - 0.00 in   Overcast
1:19 AM 33.8 °F - 33.8 °F 100% 29.74 in 5.0 mi Calm Calm - 0.00 in   Overcast
1:56 AM 34.0 °F - 32.9 °F 96% 29.75 in 4.0 mi Calm Calm - 0.00 in   Overcast
3:56 AM 34.0 °F - 32.9 °F 96% 29.73 in 5.0 mi Calm Calm - 0.00 in Snow Light Snow
4:56 AM 34.0 °F 28.8 °F 32.0 °F 92% 29.71 in 10.0 mi SE 5.8 mph - 0.00 in   Overcast
5:56 AM 33.8 °F 30.8 °F 32.0 °F 93% 29.69 in 5.0 mi ESE 3.5 mph - N/A Snow Light Snow
6:21 AM 33.8 °F 29.6 °F 32.0 °F 93% 29.68 in 7.0 mi ESE 4.6 mph - 0.00 in Snow Light Snow
6:56 AM 34.0 °F - 32.0 °F 92% 29.68 in 6.0 mi Calm Calm - 0.00 in Snow Light Snow
7:56 AM 34.0 °F - 32.0 °F 92% 29.67 in 10.0 mi Calm Calm - 0.00 in   Overcast
8:37 AM 33.8 °F 28.6 °F 32.0 °F 93% 29.66 in 10.0 mi East 5.8 mph - N/A   Overcast
8:56 AM 33.8 °F 29.6 °F 32.0 °F 93% 29.66 in 6.0 mi East 4.6 mph - N/A   Overcast
9:39 AM 33.8 °F - 32.0 °F 93% 29.66 in 10.0 mi Calm Calm - 0.00 in   Overcast
9:56 AM 34.9 °F - 32.0 °F 89% 29.67 in 10.0 mi Calm Calm - 0.00 in   Overcast
10:23 AM 35.6 °F - 32.0 °F 87% 29.66 in 10.0 mi Calm Calm - 0.00 in   Overcast
10:56 AM 34.9 °F - 32.9 °F 92% 29.66 in 10.0 mi Calm Calm - 0.00 in   Overcast
11:56 AM 37.4 °F 32.1 °F 32.0 °F 81% 29.64 in 10.0 mi SE 6.9 mph - N/A   Overcast
12:19 PM 37.4 °F 30.3 °F 33.8 °F 87% 29.64 in 10.0 mi East 10.4 mph - 0.00 in Snow Light Snow
12:42 PM 35.6 °F 30.7 °F 33.8 °F 93% 29.64 in 2.5 mi East 5.8 mph - 0.00 in Snow Light Snow
12:44 PM 35.6 °F 28.6 °F 33.8 °F 93% 29.63 in 3.0 mi East 9.2 mph - 0.00 in Snow Light Snow
12:56 PM 36.9 °F 29.1 °F 32.9 °F 86% 29.64 in 10.0 mi East 11.5 mph - 0.00 in Snow Light Snow
1:56 PM 41.0 °F 35.8 °F 31.1 °F 68% 29.63 in 10.0 mi East 8.1 mph - 0.00 in   Overcast
2:28 PM 39.2 °F 33.6 °F 30.2 °F 70% 29.61 in 9.0 mi NE 8.1 mph - 0.00 in Rain Light Rain
2:56 PM 37.4 °F 32.1 °F 32.0 °F 81% 29.60 in 10.0 mi NE 6.9 mph - N/A Snow Light Snow
3:22 PM 37.4 °F 30.3 °F 32.0 °F 81% 29.59 in 10.0 mi ENE 10.4 mph - 0.00 in   Overcast
3:56 PM 38.8 °F 32.6 °F 32.0 °F 76% 29.59 in 10.0 mi East 9.2 mph - 0.00 in Rain Light Rain
4:14 PM 41.0 °F 35.2 °F 32.0 °F 70% 29.58 in 10.0 mi East 9.2 mph - 0.00 in   Mostly Cloudy
4:56 PM 39.9 °F 34.5 °F 30.0 °F 68% 29.58 in 10.0 mi ENE 8.1 mph - 0.00 in   Overcast
5:56 PM 42.8 °F 37.0 °F 28.4 °F 57% 29.56 in 10.0 mi ESE 10.4 mph - N/A   Scattered Clouds
6:56 PM 36.9 °F 31.4 °F 29.1 °F 74% 29.57 in 10.0 mi ENE 6.9 mph - N/A   Scattered Clouds
7:56 PM 34.0 °F - 29.1 °F 82% 29.57 in 10.0 mi Calm Calm - N/A   Partly Cloudy
8:56 PM 35.6 °F 29.9 °F 30.2 °F 81% 29.55 in 10.0 mi East 6.9 mph - N/A   Overcast
9:20 PM 35.6 °F 32.8 °F 30.2 °F 81% 29.55 in 10.0 mi ESE 3.5 mph - 0.00 in   Overcast
9:56 PM 34.9 °F - 32.0 °F 89% 29.56 in 5.0 mi Calm Calm - 0.00 in   Overcast
10:18 PM 35.6 °F 31.7 °F 32.0 °F 87% 29.55 in 10.0 mi SE 4.6 mph - 0.00 in   Overcast
10:56 PM 34.9 °F - 32.0 °F 89% 29.55 in 10.0 mi Calm Calm - 0.00 in   Overcast
11:29 PM 33.8 °F 28.6 °F 32.0 °F 93% 29.54 in 4.0 mi SE 5.8 mph - 0.00 in Snow Light Snow
11:56 PM 33.8 °F 27.7 °F 32.0 °F 93% 29.53 in 4.0 mi SE 6.9 mph - N/A Snow Light Snow